TJS-2

Last updated on Sun Mar 15 2026 00:02:55 GMT+0000 (Coordinated Universal Time)

1 41911U 17001A 26073.58172218 -.00000007 00000+0 00000+0 0 9993 2 41911 0.5873 86.7286 0001663 265.2312 96.2103 1.00273681 33763
UTC large
Height (km)
Speed (km/s)
/
Latitude / Longitude
Inclination (degrees)
Orbital Period (minutes)
Azimuth
Elevation
Range (km)
Doppler Factor

Next 0 passes for location: London (51.5072 / 0.1276)

Sorry there are no passes over London.